Weather in Dendermonde

Belgium     51°01′43″N   4°05′55″E
temp.,
°C
wind,
m/s
gust,
m/s
humid.,
%
clouds,
%
prec.,
mm/h
press.,
hPa
HPBL,
m
8 may, sat
sat823:00+6sse226251 0.0 101910
02:00+5sse366094 0.0 101890
05:00+5sse4871100 0.0 1016168
08:00+8s51366100 0.0 1014393
11:00+8sse71580100 0.5 1013575
14:00+9s81691100 2.5 1010572
17:00+17ssw81478100 0.1 10081237
20:00+17ssw7137364 0.3 1007720
9 may, sun
sun923:00+13s51391100 0.0 1007245
02:00+12s5129299 0.0 1006227
05:00+11sse41293100 0.0 1004222
08:00+15s71591100 1.2 1002423
11:00+18s71482100 1.0 1002694
14:00+23ssw8115933 1.3 10011475
17:00+23s7116338 0.0 10001681
20:00+19ssw71478100 2.8 1000566
10 may, mon
mon1023:00+14s41093100 2.0 1001290
02:00+14s61393100 2.4 1001604
05:00+14sse4996100 0.8 999351
08:00+12w101694100 8.7 1001838
11:00+13sw6117827 0.5 10051072
14:00+17sw81160100 0.6 10061853
17:00+17ssw7105666 0.3 10071874
20:00+14s4874100 0.6 1008336
11 may, tue
tue1123:00+12s3683100 0.0 1009129
02:00+11s3485100 0.0 100966
05:00+9s339023 0.0 101041
08:00+11s238578 0.0 1009127
11:00+16e116965 0.4 1009608
14:00+18ese3359100 1.2 10081171
17:00+13ese4791100 1.9 1009326
20:00+13s1187100 2.9 100939
12 may, wed
wed1223:00+12w2395100 0.6 1010110
02:00+11w3690100 0.9 1011176
05:00+8wsw38945 0.0 1012174
08:00+10wsw36905 0.0 1012278
11:00+14wsw566724 0.0 10111098
14:00+15sw455999 0.2 10111549
17:00+15w2357100 0.2 1010811
20:00+13ne347699 0.3 1010148